EZY51DK EGPH-LIEO

Flight info

Callsign EZY51DK
Flight time N/A
Altitude 37000
Route TLA Y96 OTBUN DCT NATEB DCT GODOS DCT LARAS DCT DIK DCT LIMGO DCT SUTAL DCT GTQ DCT DEVDI DCT RIPUS DCT GERSA DCT SOSON DCT ODINA DCT EVANO DCT OTMUV DCT ERTEV DCT TORTU DCT OKROK DCT AJO DCT CORSI
Aircraft A320/M-SDE2E3FGHIJ1RWXYZ/LB1

Departure

Time N/A
Airport Edinburgh Airport (EGPH)

Arrival

Time 2026-04-28 19:29
Airport Olbia Costa Smeralda Airport (LIEO)
Time Latitude Longitude Altitude Speed Heading
2026-04-28 18:45 44.04698 9.02875 37047 ft 447 kts 188°
2026-04-28 18:45 43.98519 9.01820 37049 ft 447 kts 188°
2026-04-28 18:46 43.92342 9.00760 37050 ft 447 kts 188°
2026-04-28 18:46 43.86166 8.99688 37052 ft 447 kts 188°
2026-04-28 18:47 43.79989 8.98620 37051 ft 447 kts 188°
2026-04-28 18:47 43.73817 8.97553 37050 ft 447 kts 188°
2026-04-28 18:48 43.67632 8.96483 37050 ft 447 kts 188°
2026-04-28 18:48 43.61435 8.95824 37044 ft 448 kts 180°
2026-04-28 18:49 43.57263 8.95837 37044 ft 448 kts 181°
2026-04-28 18:49 43.48948 8.95839 37044 ft 448 kts 181°
2026-04-28 18:50 43.42710 8.95841 37042 ft 448 kts 181°
2026-04-28 18:50 43.36473 8.95736 37035 ft 448 kts 184°
2026-04-28 18:51 43.30256 8.95055 37038 ft 448 kts 187°
2026-04-28 18:51 43.24064 8.94159 37034 ft 448 kts 187°
2026-04-28 18:52 43.17850 8.93352 37032 ft 448 kts 186°
2026-04-28 18:52 43.11634 8.92650 37028 ft 448 kts 185°
2026-04-28 18:53 43.05419 8.91966 37030 ft 448 kts 186°
2026-04-28 18:53 42.99197 8.91254 37025 ft 448 kts 186°
2026-04-28 18:54 42.92994 8.90539 37024 ft 448 kts 186°
2026-04-28 18:54 42.87813 8.89949 37024 ft 448 kts 186°
2026-04-28 18:55 42.81600 8.89238 37021 ft 448 kts 186°
2026-04-28 18:55 42.75381 8.88521 37022 ft 448 kts 186°
2026-04-28 18:56 42.69173 8.87812 37019 ft 448 kts 186°
2026-04-28 18:56 42.62954 8.87114 37018 ft 448 kts 186°
2026-04-28 18:57 42.56741 8.86415 37018 ft 448 kts 186°
2026-04-28 18:57 42.50524 8.85696 37016 ft 448 kts 186°
2026-04-28 18:58 42.44309 8.84988 37016 ft 448 kts 186°
2026-04-28 18:58 42.38070 8.84290 36754 ft 451 kts 186°
2026-04-28 18:59 42.34939 8.83942 36493 ft 451 kts 186°
2026-04-28 18:59 42.31817 8.83591 36237 ft 451 kts 186°
2026-04-28 18:59 42.28696 8.83235 35984 ft 449 kts 186°
2026-04-28 18:59 42.25637 8.82883 35737 ft 448 kts 186°
2026-04-28 19:00 42.22484 8.82520 35477 ft 445 kts 185°
2026-04-28 19:00 42.19413 8.82174 35093 ft 441 kts 185°
2026-04-28 19:00 42.16349 8.81836 34624 ft 444 kts 185°
2026-04-28 19:00 42.13254 8.81496 33879 ft 448 kts 185°
2026-04-28 19:01 42.10151 8.81153 33339 ft 444 kts 184°
2026-04-28 19:01 42.07080 8.80813 32806 ft 440 kts 185°
2026-04-28 19:01 42.04045 8.80471 32286 ft 437 kts 185°
2026-04-28 19:01 42.01065 8.80132 31772 ft 434 kts 185°
2026-04-28 19:02 41.98051 8.79792 31265 ft 440 kts 184°
2026-04-28 19:02 41.94926 8.79447 30727 ft 461 kts 184°
2026-04-28 19:02 41.91730 8.79097 30198 ft 459 kts 184°
2026-04-28 19:02 41.88562 8.78986 29842 ft 455 kts 178°
2026-04-28 19:03 41.85418 8.79112 29474 ft 447 kts 180°
2026-04-28 19:03 41.82321 8.79232 28887 ft 448 kts 180°
2026-04-28 19:03 41.79149 8.79350 28397 ft 460 kts 180°
2026-04-28 19:03 41.75956 8.79476 27899 ft 457 kts 180°
2026-04-28 19:04 41.72747 8.79608 27381 ft 469 kts 180°
2026-04-28 19:04 41.69487 8.79744 26853 ft 467 kts 180°
2026-04-28 19:04 41.66262 8.79882 26421 ft 458 kts 179°
2026-04-28 19:04 41.63145 8.80019 26293 ft 439 kts 180°
2026-04-28 19:05 41.60193 8.80148 26163 ft 410 kts 180°
2026-04-28 19:05 41.57436 8.80266 25945 ft 386 kts 180°
2026-04-28 19:05 41.54789 8.80374 25350 ft 376 kts 180°
2026-04-28 19:05 41.52196 8.80480 24631 ft 370 kts 180°
2026-04-28 19:06 41.49632 8.80583 23895 ft 366 kts 180°
2026-04-28 19:06 41.47950 8.80649 23390 ft 364 kts 180°
2026-04-28 19:06 41.44595 8.80780 22410 ft 361 kts 180°
2026-04-28 19:06 41.42076 8.80880 21948 ft 359 kts 180°
2026-04-28 19:07 41.39597 8.80979 21506 ft 356 kts 180°
2026-04-28 19:07 41.37128 8.81083 21067 ft 354 kts 180°
2026-04-28 19:07 41.34713 8.81443 20638 ft 354 kts 169°
2026-04-28 19:07 41.32351 8.82509 20192 ft 356 kts 156°
2026-04-28 19:08 41.30235 8.84238 19764 ft 357 kts 146°
2026-04-28 19:08 41.28246 8.86202 19335 ft 355 kts 146°
2026-04-28 19:08 41.26263 8.88145 18902 ft 354 kts 146°
2026-04-28 19:08 41.24279 8.90081 18483 ft 353 kts 146°
2026-04-28 19:09 41.22310 8.91999 18014 ft 348 kts 146°
2026-04-28 19:09 41.20380 8.93877 17594 ft 342 kts 146°
2026-04-28 19:09 41.18461 8.95740 17186 ft 340 kts 146°
2026-04-28 19:09 41.16555 8.97592 16779 ft 338 kts 146°
2026-04-28 19:10 41.14662 8.99432 16388 ft 337 kts 146°
2026-04-28 19:10 41.12780 9.01262 15992 ft 335 kts 146°
2026-04-28 19:10 41.10892 9.03074 15583 ft 335 kts 146°
2026-04-28 19:10 41.08979 9.04855 15159 ft 336 kts 147°
2026-04-28 19:11 41.07064 9.06605 14734 ft 336 kts 147°
2026-04-28 19:11 41.05128 9.08362 14320 ft 337 kts 147°
2026-04-28 19:11 41.03196 9.10120 13899 ft 337 kts 147°
2026-04-28 19:11 41.01420 9.12119 13438 ft 334 kts 127°
2026-04-28 19:12 41.00485 9.14848 13007 ft 323 kts 99°
2026-04-28 19:12 41.00619 9.17779 12785 ft 324 kts 71°
2026-04-28 19:12 41.01693 9.20383 12586 ft 324 kts 53°
2026-04-28 19:12 41.03016 9.22793 12374 ft 323 kts 54°
2026-04-28 19:13 41.04303 9.25227 12168 ft 322 kts 55°
2026-04-28 19:13 41.05569 9.27672 11955 ft 322 kts 57°
2026-04-28 19:13 41.06494 9.30344 11831 ft 320 kts 77°
2026-04-28 19:13 41.06674 9.33272 11764 ft 319 kts 98°
2026-04-28 19:14 41.06074 9.36030 11668 ft 315 kts 119°
2026-04-28 19:14 41.04768 9.38364 11376 ft 312 kts 139°
2026-04-28 19:14 41.02992 9.39893 10660 ft 308 kts 161°
2026-04-28 19:14 41.00896 9.40477 9954 ft 303 kts 180°
2026-04-28 19:15 40.98860 9.40105 9278 ft 298 kts 200°
2026-04-28 19:15 40.97074 9.38878 9038 ft 280 kts 218°
2026-04-28 19:15 40.95736 9.37099 8995 ft 267 kts 235°
2026-04-28 19:15 40.95108 9.35707 9003 ft 257 kts 243°
2026-04-28 19:16 40.93994 9.32912 9005 ft 260 kts 242°
2026-04-28 19:16 40.93022 9.30897 9005 ft 260 kts 234°
2026-04-28 19:16 40.91978 9.28939 9007 ft 260 kts 235°
2026-04-28 19:16 40.90938 9.26981 9010 ft 260 kts 235°
2026-04-28 19:17 40.89902 9.25023 9011 ft 260 kts 234°
2026-04-28 19:17 40.88869 9.23067 9009 ft 260 kts 235°
2026-04-28 19:17 40.87831 9.21094 8737 ft 262 kts 235°
2026-04-28 19:17 40.86799 9.19128 8235 ft 259 kts 235°
2026-04-28 19:18 40.85778 9.17185 7723 ft 255 kts 235°
2026-04-28 19:18 40.84773 9.15274 7235 ft 252 kts 234°
2026-04-28 19:18 40.83770 9.13370 7024 ft 252 kts 235°
2026-04-28 19:18 40.82765 9.11471 7023 ft 253 kts 234°
2026-04-28 19:19 40.81759 9.09575 7012 ft 252 kts 234°
2026-04-28 19:19 40.80753 9.07680 7014 ft 252 kts 234°
2026-04-28 19:19 40.79745 9.05783 6923 ft 254 kts 234°
2026-04-28 19:19 40.78735 9.03882 6585 ft 250 kts 234°
2026-04-28 19:20 40.77620 9.02143 6240 ft 249 kts 215°
2026-04-28 19:20 40.76085 9.01333 6023 ft 231 kts 182°
2026-04-28 19:20 40.74573 9.01760 6016 ft 227 kts 151°
2026-04-28 19:20 40.73272 9.02944 6029 ft 228 kts 135°
2026-04-28 19:21 40.72428 9.04703 6021 ft 231 kts 108°
2026-04-28 19:21 40.72318 9.06797 6028 ft 233 kts 81°
2026-04-28 19:21 40.72611 9.08908 6022 ft 234 kts 80°
2026-04-28 19:21 40.72903 9.11014 6030 ft 234 kts 80°
2026-04-28 19:22 40.73194 9.13124 6031 ft 234 kts 81°
2026-04-28 19:22 40.73386 9.14525 6019 ft 235 kts 81°
2026-04-28 19:22 40.73675 9.16644 6022 ft 234 kts 81°
2026-04-28 19:22 40.73950 9.18646 6031 ft 235 kts 81°
2026-04-28 19:23 40.74238 9.20753 6018 ft 232 kts 81°
2026-04-28 19:23 40.74565 9.22839 5978 ft 234 kts 76°
2026-04-28 19:23 40.75082 9.24843 5536 ft 229 kts 65°
2026-04-28 19:23 40.75881 9.26623 5158 ft 221 kts 54°
2026-04-28 19:24 40.76727 9.28225 4983 ft 203 kts 57°
2026-04-28 19:24 40.77452 9.29764 4593 ft 194 kts 60°
2026-04-28 19:24 40.78152 9.31284 4206 ft 194 kts 59°
2026-04-28 19:24 40.78872 9.32788 3942 ft 194 kts 58°
2026-04-28 19:25 40.79592 9.34254 3705 ft 188 kts 58°
2026-04-28 19:25 40.80317 9.35677 3387 ft 186 kts 56°
2026-04-28 19:25 40.81020 9.37029 3086 ft 171 kts 53°
2026-04-28 19:25 40.81803 9.38157 2900 ft 163 kts 43°
2026-04-28 19:26 40.82644 9.39090 2619 ft 156 kts 38°
2026-04-28 19:26 40.83491 9.39971 2331 ft 154 kts 42°
2026-04-28 19:26 40.84241 9.40973 2142 ft 152 kts 51°
2026-04-28 19:26 40.84881 9.42074 1929 ft 152 kts 58°
2026-04-28 19:27 40.85467 9.43226 1704 ft 150 kts 58°
2026-04-28 19:27 40.86039 9.44402 1364 ft 151 kts 58°
2026-04-28 19:27 40.86609 9.45515 1177 ft 143 kts 57°
2026-04-28 19:27 40.87163 9.46609 961 ft 143 kts 57°
2026-04-28 19:28 40.87725 9.47678 709 ft 141 kts 55°
2026-04-28 19:28 40.88285 9.48735 468 ft 140 kts 57°
2026-04-28 19:28 40.88839 9.49803 241 ft 140 kts 57°
2026-04-28 19:28 40.89396 9.50858 52 ft 140 kts 57°
2026-04-28 19:29 40.89889 9.51803 38 ft 102 kts 58°
2026-04-28 19:29 40.90109 9.52237 37 ft 56 kts 54°
2026-04-28 19:29 40.90326 9.52639 34 ft 26 kts 56°
2026-04-28 19:29 40.90419 9.52674 34 ft 7 kts 349°
2026-04-28 19:30 40.90434 9.52665 34 ft 0 kts 321°
2026-04-28 19:30 40.90442 9.52653 34 ft 4 kts 307°
2026-04-28 19:30 40.90449 9.52624 35 ft 3 kts 279°
2026-04-28 19:30 40.90453 9.52586 35 ft 2 kts 276°
2026-04-28 19:31 40.90453 9.52515 35 ft 0 kts 262°